岩本彗星

C/2018 Y1 ( Iwamoto )

English version
Home page
Updated on April 21, 2019

---------------------------------------------------------------------

・ プロフィール

発見日 2018年12月18日
発見光度 12等
発見者 Masayuki Iwamoto (Awa, Tokushima, Japan)

・ 写真集

・ 軌道要素

Epoch 2019 Feb. 6.0 TT = JDT 2458520.5
T 2019 Feb. 7.02515 TT                                  MPCW
q   1.2869470            (2000.0)            P               Q
z  +0.0077461      Peri.  358.05238     -0.85995289     +0.47746096
 +/-0.0002591      Node   147.48270     +0.47267621     +0.61181883
e   0.9900312      Incl.  160.40140     +0.19250512     +0.63064154
From 849 observations 2018 Dec. 18-2019 Feb. 15, mean residual 0".7.

・ 星図

・ 光度変化

        m1 = 7.0 + 5 logΔ + 15.0 log r

---------------------------------------------------------------------

軌道要素はM.P.E.C. 2019-D01に掲載されたものです。
星図はステラナビゲータ Ver.10 (アストロアーツ) で作成したものです。
光度グラフはComet for Windowsで作成したものです。

---------------------------------------------------------------------

Copyright(C) Seiichi Yoshida (comet@aerith.net). All rights reserved.